Location: Faubourg des Sarts
(50.2898°N, 3.9632°E)
Time: 22:26:18
(UTC+00:00)

Daily predictions for brighter satellites

Satellite Brightness Start Highest point End
(mag) Time Altitude Azimuth Time Altitude Azimuth Time Altitude Azimuth
Cosmos 1782 4.5 17:29:57 10° NE 17:31:23 12° ENE 17:32:48 10° E
CZ-4 R/B 4.3 17:29:24 10° SSE 17:33:19 62° ENE 17:37:16 10° N
Cosmos 1674 Rocket 3.6 17:29:49 10° S 17:34:10 68° E 17:38:35 10° NNE
SPOT 1/Viking Rocket 3.5 17:29:23 10° SSE 17:34:29 78° ENE 17:39:39 10° NNW
ATLAS 5 CENTAUR R/B 4.4 17:33:01 10° WNW 17:36:39 25° WSW 17:40:53 10° S
Geosat FO 4.2 17:33:32 10° NNE 17:36:39 86° WNW 17:39:40 10° SSW
USA 267 3.3 17:31:47 10° ENE 17:38:23 81° SSE 17:44:56 10° SW
CARTOSAT-1 4.2 17:35:09 10° SE 17:38:53 32° ENE 17:42:39 10° N
ARIANE 6 FM1 Upper Stage 3.8 17:38:50 10° NNW 17:42:10 25° NNE 17:45:29 10° E
Radarsat Rocket 4.2 17:36:27 10° SE 17:42:11 55° ENE 17:48:28 10° NNW
Meteor 1-11 4.3 17:37:58 10° S 17:43:37 88° E 17:49:24 10° NNE
Cosmos 2292 Rocket 4.1 17:40:56 10° SSW 17:43:44 41° WNW 17:46:53 10° N
CZ-2D R/B 3.6 17:43:08 10° S 17:46:08 52° W 17:49:08 10° NNW
Cosmos 2297 Rocket 2.5 17:41:16 10° S 17:46:41 49° ESE 17:52:08 10° NE
SAR-Lupe-5 4.3 17:50:57 10° N 17:53:27 73° WNW 17:55:51 10° SSW
SPOT 5 4.3 17:52:35 10° E 17:56:01 19° NE 17:59:32 10° NNE
SeaSat 1 2.8 17:52:50 10° SSE 17:57:42 70° WSW 18:02:36 10° NNW
Tiangong 0.3 17:56:20 10° SSW 17:58:01 14° SSE 17:59:41 10° SE
SJ-6B 3.6 17:56:00 10° ESE 17:58:45 23° ENE 18:01:32 10° NNE
Cosmos 2233 Rocket 4.4 17:54:37 10° NNW 18:00:53 70° W 18:07:08 10° S
Cosmos 1125 Rocket 4.0 17:58:11 10° NNW 18:03:20 65° WSW 18:08:29 10° S
PSLV R/B 3.5 17:59:32 10° SSE 18:03:33 55° ENE 18:07:34 10° N
Cosmos 2228 3.5 17:59:52 10° N 18:03:44 35° ENE 18:07:35 10° SE
Cosmos 2285 Rocket 4.2 17:58:03 10° NNW 18:04:31 81° WSW 18:10:53 10° SSE
COSMO-SKYMED 1 2.6 18:00:45 10° NNE 18:04:46 50° E 18:08:46 10° S
NOSS 3-3 (C) 3.8 18:00:18 10° SW 18:05:36 87° NW 18:12:03 10° NE
Meteor 1-31 Rocket 4.2 18:06:27 15° ENE 18:06:27 15° ENE 18:08:32 10° NNE
Cosmos 1570 Rocket 4.1 18:02:18 10° S 18:07:26 56° ESE 18:12:35 10° NNE
CZ-2D R/B 3.3 18:04:27 10° SSE 18:08:23 84° ENE 18:12:26 10° NNW
Cosmos 2344 4.3 18:02:51 10° S 18:09:19 28° ESE 18:14:28 13° ENE
Cosmos 1513 Rocket 4.5 18:05:03 10° N 18:11:19 67° ENE 18:17:39 10° SSE
Cosmos 1455 Rocket 2.9 18:07:14 10° N 18:11:32 71° ENE 18:15:49 10° SSE
YAOGAN 1 2.7 18:08:18 10° S 18:12:33 78° WSW 18:16:50 10° NNW
Cosmos 2263 Rocket 3.3 18:09:18 10° SSE 18:13:37 23° ESE 18:16:42 15° ENE
Cosmos 1607 4.5 18:07:46 10° WSW 18:13:49 58° NW 18:19:58 10° NE
Cosmos 1975 Rocket 3.5 18:10:55 10° SSE 18:14:53 36° E 18:18:50 10° NNE
Cosmos 1980 4.1 18:09:23 10° NNW 18:15:01 69° WSW 18:20:37 10° SSE
Cosmos 2034 Rocket 4.5 18:09:33 10° N 18:15:13 36° ENE 18:20:53 10° SE
USA 234 4.2 18:10:24 10° SSE 18:16:40 48° SW 18:23:01 10° WNW
Cosmos 2237 Rocket 2.6 18:14:33 10° NNW 18:20:12 68° WSW 18:25:50 10° SSE
SJ-7 4.2 18:19:54 10° S 18:23:35 79° WSW 18:27:15 10° NNW
Cosmos 773 Rocket 4.0 18:18:42 10° S 18:23:52 60° ESE 18:29:04 10° NNE
Spot 4 Rocket 4.1 18:19:11 10° SSE 18:24:17 80° WSW 18:29:26 10° NNW
DNEPR-1 R/B 3.9 18:19:40 10° NW 18:24:29 79° NE 18:30:16 10° SE
NOAA 6 4.0 18:20:13 10° SSE 18:25:22 87° ENE 18:30:35 10° NNW
Okean 1 Rocket 4.5 18:23:41 10° NNW 18:27:50 41° W 18:31:55 10° SSW
Meteor 1-27 4.3 18:23:55 10° NNW 18:29:45 87° WSW 18:35:35 10° S
Cosmos 2208 Rocket 4.0 18:24:39 10° S 18:29:48 62° ESE 18:35:05 10° NNE
Terra 3.5 18:31:24 15° NE 18:31:24 15° NE 18:33:25 10° NNE
NOSS 3-3 (A) 4.3 18:26:50 10° WSW 18:32:07 58° NW 18:38:33 10° NE
CRYOSAT 2 4.3 18:28:40 10° N 18:33:34 72° E 18:38:26 10° S
Meteor 2-17 Rocket 4.3 18:30:16 10° S 18:36:16 70° E 18:42:18 10° NNE
Cosmos 44 Rocket 3.3 18:33:55 10° SSW 18:38:49 72° SE 18:42:35 18° NE
Cosmos 1346 Rocket 2.9 18:35:26 10° SSE 18:38:51 41° E 18:40:09 29° NE
Cosmos 1602 2.6 18:39:42 10° S 18:42:28 77° E 18:43:15 42° NNE
Cosmos 1464 Rocket 3.9 18:36:04 10° N 18:42:29 78° E 18:48:46 10° SSE
CZ-4C R/B 3.0 18:39:05 10° WSW 18:43:27 41° NNW 18:48:41 11° NE
Cosmos 2227 Rocket 2.2 18:40:31 10° SSW 18:46:04 61° ESE 18:51:30 11° NE
SL-16 R/B 2.2 18:41:15 10° NNW 18:46:54 65° ENE 18:50:49 20° SE
Helios 1A Rocket 4.1 18:49:53 19° SSE 18:49:53 19° SSE 18:51:02 10° S
NOSS 3-4 (A) 4.3 18:44:07 10° NW 18:50:45 64° SW 18:58:34 10° SSE
NOSS 3-4 (C) 4.2 18:44:22 10° NW 18:51:03 64° SW 18:58:53 10° SSE
Cosmos 2150 Rocket 4.3 18:49:07 10° NNW 18:54:14 67° WSW 18:59:18 10° S
ATLAS CENTAUR R/B 3.2 18:54:40 10° N 18:54:54 11° N 18:54:54 11° N
Cosmos 2298 Rocket 4.4 18:53:01 10° NNW 18:58:17 66° WSW 19:03:31 10° S
Lacrosse 5 rocket 2.4 18:57:42 10° WNW 19:00:48 27° N 19:01:16 26° NNE
CZ-4 R/B 2.4 19:02:50 28° NNE 19:02:50 28° NNE 19:04:59 10° N
Resurs 01 Rocket 2.5 19:00:18 10° S 19:04:33 50° W 19:08:53 10° NNW
Cosmos 1782 2.8 19:02:58 10° NNW 19:06:33 65° W 19:09:32 14° S
BREEZE-M DEB (TANK) 4.4 19:02:52 10° SSW 19:07:09 41° SE 19:11:13 29° E
ATLAS 2AS CENTAUR R/B 4.1 19:02:46 10° NW 19:08:26 26° N 19:11:46 18° NE
CZ-4B R/B 3.5 19:12:00 41° ENE 19:12:00 41° ENE 19:16:49 10° N
CSL-04 Debris 4.0 19:12:11 28° SSE 19:15:08 72° ENE 19:20:33 10° NNW
CZ-4B DEB 4.1 19:14:54 43° SE 19:16:32 62° ENE 19:21:55 10° N
ERS-1 Rocket 3.6 19:20:01 38° NE 19:20:01 38° NE 19:23:46 10° N
CSL-04 Rocket 3.5 19:17:14 26° SSE 19:20:19 83° ENE 19:25:38 10° NNW
USA 267 3.7 19:17:48 28° NE 19:21:15 57° NNW 19:27:37 10° W
ARIANE 6 FM1 Upper Stage 2.5 19:17:37 10° NW 19:21:31 78° WSW 19:21:31 78° WSW
RESURS DK-1 3.8 19:22:37 10° NNW 19:24:45 26° N 19:24:45 26° N
Cosmos 2297 Rocket 3.6 19:25:42 10° WSW 19:30:54 36° NW 19:36:08 10° NNE
Cosmos 2058 4.1 19:27:48 10° SSW 19:29:54 30° SSW 19:29:54 30° SSW
SJ-6B 4.5 19:29:01 10° SSW 19:32:02 28° W 19:35:04 10° NW
SPOT 5 2.9 19:31:23 38° S 19:33:17 79° WSW 19:38:27 10° NNW
Cosmos 1943 3.2 19:27:59 10° NNW 19:33:39 59° NE 19:33:42 59° ENE
Tiangong 0.8 19:32:06 10° SW 19:32:34 12° SW 19:32:34 12° SW
Tsikada Rocket 3.8 19:29:30 10° S 19:35:37 74° E 19:41:49 10° NNE
Okean O Rocket 3.9 19:39:04 14° N 19:39:04 14° N 19:39:46 10° N
MOS 1 4.1 19:38:44 68° E 19:38:58 69° ENE 19:44:38 10° NNW
Meteor 1-31 Rocket 4.2 19:40:27 31° NW 19:40:27 31° NW 19:42:33 10° NNW
Cosmos 1544 Rocket 4.5 19:40:07 10° NNW 19:44:16 46° W 19:46:04 29° SSW
Cosmos 2219 3.6 19:41:26 10° SSW 19:45:34 48° S 19:45:34 48° S
ADEOS 3.7 19:53:49 64° N 19:53:49 64° N 19:58:14 10° NNW
Cosmos 2263 Rocket 2.4 19:51:18 10° SW 19:56:58 71° WNW 19:58:28 49° N
Cosmos 1634 Rocket 4.2 20:01:06 10° NNW 20:07:23 69° W 20:09:11 47° SSW
Terra 3.3 20:10:00 29° NNW 20:10:00 29° NNW 20:12:18 10° NNW
Cosmos 2344 3.5 20:15:21 10° SW 20:22:56 73° NW 20:24:32 56° NNE
Cosmos 2279 Rocket 4.3 20:22:09 10° NNW 20:27:38 63° WNW 20:27:38 63° WNW
Cosmos 2227 Rocket 3.8 20:25:31 10° WSW 20:30:29 31° NW 20:33:22 20° N
SL-16 R/B 4.1 20:26:03 10° NW 20:30:33 25° WSW 20:32:45 19° SW
CZ-4C R/B 4.0 20:28:55 10° WNW 20:33:15 24° N 20:33:38 24° N
CZ-4 R/B 4.4 20:37:50 12° NW 20:37:50 12° NW 20:38:22 10° NW
ATLAS 2AS CENTAUR R/B 3.9 20:54:46 10° NW 20:59:11 33° N 20:59:11 33° N
USA 267 4.1 21:05:09 44° NNW 21:05:09 44° NNW 21:10:03 10° WNW
